Location: Penton Mewsey
(51.2167°N, 1.5167°W)
Time: 12:24:50
(UTC+00:00)

Cosmos 2181 Rocket - Pass Details

Date: 30 March 2020
Orbit: 952 x 1014 km, 82.9° (Epoch: 02 June)

Event Time Altitude Azimuth Distance (km) Brightness Sun altitude
Exits shadow 22:00:26 76° 164° (SSE) 1,014 3.8 -28.0°
Maximum altitude 22:00:56 84° 98° (E) 993 3.9 -28.1°
Drops below altitude 10° 22:07:12 10° 11° (N) 2,726 6.8 -28.6°
Sets 22:09:42 0° 11° (N) 3,669 7.6 -28.9°
